Regional Weather Roundup
Issued by NWS

Home | Current Version | Previous Version | Graphics & Text | Print | Product List | Glossary On
Versions: 1 2 3 4 5 6 7 8 9 10 11 12 13 14 15 16 17 18 19 20 21 22 23 24 25 26 27 28 29 30 31 32 33 34 35 36 37 38 39 40 41 42 43 44 45 46 47 48 49 50
198
ASUS45 KSLC 291710
RWRUT

UTAH REGIONAL WEATHER ROUNDUP
NATIONAL WEATHER SERVICE SALT LAKE CITY UT
1100 AM MDT FRI APR 29 2016

UTZ001>011-023>025-291800-

NORTHERN UTAH

CITY           SKY/WX    TMP DP  RH WIND       PRES   REMARKS
BRIGHAM CITY   CLOUDY    49  32  52 SW5       29.91S
HILL AFB       CLOUDY    47  33  56 SE7       29.90S
LOGAN          MOSUNNY   49  29  46 S7        29.89S
OGDEN          CLOUDY    49  32  52 CALM      29.89F
PROVO AIRPORT  PTSUNNY   46  36  66 CALM      29.91R
SALT LAKE CITY LGT RAIN  49  33  54 N3        29.90R
VERNAL         CLOUDY    43  35  73 E12       29.88S
WENDOVER       PTSUNNY   54  34  47 N13       29.92R
HEBER CITY     CLOUDY    41  32  70 CALM      29.90S

$$

UTZ012>022-026-027-291800-

SOUTHERN/CENTRAL UTAH

CITY           SKY/WX    TMP DP  RH WIND       PRES   REMARKS
BLANDING       CLOUDY    44  36  72 SE3       29.94S
BRYCE CANYON   CLOUDY    39  31  72 NW12      29.94R WCI  32
CEDAR CITY     PTSUNNY   48  39  71 N9        29.93S
DELTA          CLOUDY    48  39  71 S6        29.92S
MILFORD        MOSUNNY   52  38  58 N6        29.92F
MOAB/CYNLANDS  MOSUNNY   52  40  63 NW7       29.84S
PRICE          CLOUDY    47  33  58 VRB3      29.86R
ST GEORGE      PTSUNNY   57  43  58 SW7       29.94S
KANAB          MOSUNNY   52  43  71 S7        29.95F

$$

REGIONAL REPORTS     COLORADO/ARIZONA

CITY           SKY/WX    TMP DP  RH WIND       PRES   REMARKS
CRAIG, CO      CLOUDY    43  36  76 SW3       29.86S
GRAND JUNCTION PTSUNNY   49  39  68 NW9       29.84F
RIFLE          CLOUDY    49  37  63 W8        29.82F
MONTROSE       CLOUDY    47  33  58 VRB3      29.86S
CORTEZ         CLOUDY    48  35  60 SW10      29.87F
PAGE, AZ       CLOUDY    54  42  64 N8        29.88S
GRAND CANYON   CLOUDY    42  37  82 W9        29.96R
KINGMAN        SUNNY     59  42  53 N8        29.96R
FLAGSTAFF      PTSUNNY   44  34  67 W6        29.96R

$$

REGIONAL REPORTS    NEVADA/IDAHO/WYOMING

CITY           SKY/WX    TMP DP  RH WIND       PRES   REMARKS
LAS VEGAS, NV  MOSUNNY   67  41  38 CALM      29.88S
ELY            PTSUNNY   46  32  58 CALM      29.95F
ELKO           CLOUDY    49  38  65 SW8       29.93F
POCATELLO, ID  CLOUDY    48  38  68 SW10      29.90S
BURLEY         CLOUDY    46  40  79 W8        29.89S
EVANSTON, WY   CLOUDY    34  26  72 E8        29.91S WCI  27
ROCK SPRINGS   LGT SNOW  33  28  81 NE13      29.92F WCI  24
KEMMERER       CLOUDY    32  27  80 E13G18    29.92F WCI  22

$$




USA.gov is the U.S. government's official web portal to all federal, state and local government web resources and services.